Ellington Field, TX

1:41 AM CST on January 20, 2018 (GMT -0600)
Ellington

Weather History for KEFD - November, 2013

Change the Weather History Date:

Thursday, November 14, 2013

  Actual Average Record
Temperature  
Mean Temperature 53 °F -  
Max Temperature 64 °F 70 °F 86 °F (2005)
Min Temperature 42 °F 53 °F 37 °F (2000)
Degree Days  
Heating Degree Days 12    
Growing Degree Days 3 (Base 50)    
Moisture  
Dew Point 41 °F    
Average Humidity 65    
Maximum Humidity 77    
Minimum Humidity 52    
Precipitation  
Precipitation 0.00 in - - ()
Sea Level Pressure  
Sea Level Pressure 30.26 in    
Wind  
Wind Speed 3 mph (East)    
Max Wind Speed 12 mph    
Max Gust Speed -    
Visibility 10 miles    
Events      
Averages and records for this station are not official NWS values.
T = Trace of Precipitation, MM = Missing Value Source: NWS Daily Summary

Daily Weather History Graph

Daily Weather History Graph

Search for Another Location

Airport or City:

Trip Planner

Search our weather history database for the weather conditions in past years. The results will help you decide how hot, cold, wet, or windy it might be!

Date:

Astronomy

Nov. 14, 2013 Rise Set
Actual Time 6:44 AM CST 5:25 PM CST
Civil Twilight 6:19 AM CST 5:50 PM CST
Nautical Twilight 5:50 AM CST 6:19 PM CST
Astronomical Twilight 5:22 AM CST 6:47 PM CST
Moon 3:37 PM CST (11/14) 3:52 AM CST (11/14)
Length of Visible Light 11h 31m
Length of Day
10h 41m
Waxing Gibbous, 92% of the Moon is Illuminated
Nov 14
Waxing Gibbous
Nov 17
Full
Nov 25
Last Quarter
Dec 2
New
Dec 9
First Quarter

Hourly Weather History & Observations

Time (CST) Temp. Windchill Dew Point Humidity Pressure Visibility Wind Dir Wind Speed Gust Speed Precip Events Conditions
12:50 AM 44.6 °F - 28.4 °F 53% 30.42 in 10.0 mi Calm Calm - N/A   Mostly Cloudy
1:50 AM 44.6 °F - 30.2 °F 57% 30.40 in 10.0 mi Calm Calm - N/A   Mostly Cloudy
2:50 AM 42.8 °F - 30.2 °F 61% 30.38 in 10.0 mi Calm Calm - N/A   Scattered Clouds
3:50 AM 42.8 °F - 30.2 °F 61% 30.36 in 10.0 mi Calm Calm - N/A   Mostly Cloudy
4:50 AM 42.8 °F 40.1 °F 32.0 °F 66% 30.34 in 10.0 mi NE 4.6 mph - N/A   Overcast
5:50 AM 42.8 °F 39.3 °F 32.0 °F 66% 30.33 in 10.0 mi NNE 5.8 mph - N/A   Mostly Cloudy
6:50 AM 42.8 °F - 32.0 °F 66% 30.34 in 10.0 mi Calm Calm - N/A   Mostly Cloudy
7:50 AM 42.8 °F 41.1 °F 33.8 °F 70% 30.34 in 10.0 mi NE 3.5 mph - N/A   Mostly Cloudy
8:50 AM 46.4 °F 44.3 °F 37.4 °F 71% 30.34 in 10.0 mi NE 4.6 mph - N/A   Mostly Cloudy
9:50 AM 48.2 °F - 41.0 °F 76% 30.34 in 10.0 mi NE 4.6 mph - N/A   Mostly Cloudy
10:50 AM 53.6 °F - 44.6 °F 72% 30.31 in 10.0 mi NE 4.6 mph - N/A   Mostly Cloudy
11:50 AM 60.8 °F - 46.4 °F 59% 30.28 in 10.0 mi SE 4.6 mph - N/A   Mostly Cloudy
12:50 PM 62.6 °F - 46.4 °F 55% 30.24 in 10.0 mi ESE 10.4 mph - N/A   Mostly Cloudy
1:50 PM 64.4 °F - 46.4 °F 52% 30.20 in 10.0 mi ESE 11.5 mph - N/A   Mostly Cloudy
2:50 PM 64.4 °F - 46.4 °F 52% 30.17 in 10.0 mi ESE 9.2 mph - N/A   Overcast
3:50 PM 60.8 °F - 46.4 °F 59% 30.16 in 10.0 mi ESE 10.4 mph - N/A   Mostly Cloudy
4:50 PM 59.0 °F - 46.4 °F 63% 30.16 in 10.0 mi ESE 5.8 mph - N/A   Mostly Cloudy
5:50 PM 59.0 °F - 48.2 °F 67% 30.16 in 10.0 mi East 4.6 mph - N/A   Mostly Cloudy
6:50 PM 57.2 °F - 48.2 °F 72% 30.16 in 10.0 mi East 5.8 mph - N/A   Mostly Cloudy
8:50 PM 55.4 °F - 48.2 °F 77% 30.12 in 10.0 mi Calm Calm - N/A   Mostly Cloudy
9:50 PM 55.4 °F - 48.2 °F 77% 30.12 in 10.0 mi Calm Calm - N/A   Mostly Cloudy
10:50 PM 55.4 °F - 48.2 °F 77% 30.12 in 10.0 mi Calm Calm - N/A   Mostly Cloudy
11:50 PM 53.6 °F - 46.4 °F 77% 30.10 in 10.0 mi Calm Calm - N/A   Mostly Cloudy